Tracking 19245 objects as of 21-Aug-2018
HD Live streaming from Space Station
objects crossing your sky now

GONETS D1 1

Track GONETS D1 1 now!
10-day predictions
GONETS D1 1 is classified as:


NORAD ID: 23787
Int'l Code: 1996-009A
Perigee: 1,404.5 km
Apogee: 1,422.4 km
Inclination: 82.6 °
Period: 113.9 minutes
Semi major axis: 7784 km
RCS: 1.0298 m2 (large)
Launch date: February 19, 1996
Source: Commonwealth of Independent States (former USSR) (CIS)
Launch site: PLESETSK MISSILE AND SPACE COMPLEX (PKMTR)

Commercial version of Strela (GRU) military system; store and forward communications satellites; will operate until 2004 or 2005; not a successful commercial venture.
aabbcc
Your satellite tracking list
Your tracking list is empty




NASA's NSSDC Master Catalog

Two Line Element Set (TLE):
1 23787U 96009A   18232.42221474 +.00000031 +00000-0 +11093-3 0  9994
2 23787 082.5799 328.6869 0011475 060.3714 299.8518 12.64034835038245
Source of the keplerian elements: AFSPC